Queralbs





Hora UTC 11:10
Temperatura 12.8 ºC
Humitat 21.0 %
Pressió 1013.0 hPa
Pluja 0.0 mm
Velocitat vent 4.8 km/h
Direcció vent NNW
Radiació solar 1072.0 W/m²

Dades diàries 2021-05-14



Hora UTC (hivern +1h; estiu +2h)
Temperatura (ºC) Humitat (%) Pressió (hPa) Velocitat vent (km/h) Precipitació (mm) Radiació solar (W/m²)
Hora UTC Aire Humitat Pressió Vel. Dir. Vel. Max Dir. Intent. màx 5 min. Rad. Sol.
00:05 5.2 65.0 1010.4 1.6 W 1.6 0.0 0.0
00:10 5.2 65.0 1010.4 0.0 W 4.8 0.0 0.0
00:15 5.1 66.0 1010.4 0.0 W 1.6 0.0 0.0
00:20 5.2 66.0 1010.4 0.0 W 1.6 0.0 0.0
00:25 5.2 65.0 1010.5 1.6 W 3.2 0.0 0.0
00:30 5.1 66.0 1010.5 0.0 W 3.2 0.0 0.0
00:35 5.1 66.0 1010.4 0.0 W 1.6 0.0 0.0
00:40 5.1 66.0 1010.3 0.0 W 4.8 0.0 0.0
00:45 5.1 66.0 1010.3 0.0 W 4.8 0.0 0.0
00:50 5.0 66.0 1010.2 1.6 W 1.6 0.0 0.0
00:55 5.0 66.0 1010.3 0.0 W 1.6 0.0 0.0
01:00 5.0 66.0 1010.2 0.0 W 1.6 0.0 0.0
01:05 5.1 66.0 1010.2 0.0 W 1.6 0.0 0.0
01:10 5.1 66.0 1010.2 0.0 W 1.6 0.0 0.0
01:15 5.0 66.0 1010.0 0.0 W 0.0 0.0 0.0
01:20 4.8 66.0 1010.2 0.0 W 0.0 0.0 0.0
01:25 4.8 66.0 1010.3 0.0 W 0.0 0.0 0.0
01:30 4.7 66.0 1010.3 1.6 W 3.2 0.0 0.0
01:35 4.6 66.0 1010.3 0.0 W 3.2 0.0 0.0
01:40 4.6 66.0 1010.3 0.0 W 1.6 0.0 0.0
01:45 4.6 66.0 1010.3 3.2 W 3.2 0.0 0.0
01:50 4.4 66.0 1010.3 1.6 W 3.2 0.0 0.0
01:55 4.4 66.0 1010.4 1.6 W 3.2 0.0 0.0
02:00 4.4 67.0 1010.3 1.6 W 3.2 0.0 0.0
02:05 4.4 66.0 1010.4 3.2 W 4.8 0.0 0.0
02:10 4.4 66.0 1010.3 1.6 W 4.8 0.0 0.0
02:15 4.3 66.0 1010.3 3.2 W 3.2 0.0 0.0
02:20 4.3 66.0 1010.2 0.0 W 3.2 0.0 0.0
02:25 4.4 66.0 1010.2 1.6 W 4.8 0.0 0.0
02:30 4.3 66.0 1010.2 3.2 W 4.8 0.0 0.0
02:35 4.3 66.0 1010.1 0.0 W 3.2 0.0 0.0
02:40 4.3 66.0 1010.1 0.0 W 3.2 0.0 0.0
02:45 4.3 66.0 1010.0 0.0 W 1.6 0.0 0.0
02:50 4.2 66.0 1010.0 0.0 W 0.0 0.0 0.0
02:55 4.2 66.0 1009.9 0.0 W 1.6 0.0 0.0
03:00 4.1 66.0 1010.0 0.0 W 1.6 0.0 0.0
03:05 4.1 66.0 1010.0 0.0 W 0.0 0.0 0.0
03:10 4.1 66.0 1010.1 0.0 W 0.0 0.0 0.0
03:15 4.1 66.0 1010.1 0.0 W 0.0 0.0 0.0
03:20 4.1 66.0 1010.1 0.0 W 0.0 0.0 0.0
03:25 4.2 66.0 1010.1 0.0 W 0.0 0.0 0.0
03:30 4.3 66.0 1009.9 0.0 W 0.0 0.0 0.0
03:35 4.3 66.0 1010.0 0.0 W 0.0 0.0 0.0
03:40 4.3 66.0 1010.0 0.0 W 0.0 0.0 0.0
03:45 4.3 66.0 1010.0 0.0 W 0.0 0.0 0.0
03:50 4.4 66.0 1009.9 0.0 W 0.0 0.0 0.0
03:55 4.4 65.0 1009.9 0.0 W 0.0 0.0 0.0
04:00 4.6 66.0 1009.9 1.6 W 1.6 0.0 0.0
04:05 4.7 65.0 1009.8 1.6 W 4.8 0.0 0.0
04:10 4.7 65.0 1009.9 0.0 W 4.8 0.0 0.0
04:15 4.7 65.0 1009.7 0.0 W 3.2 0.0 0.0
04:20 4.7 65.0 1009.9 0.0 W 0.0 0.0 0.0
04:25 4.6 65.0 1010.0 0.0 W 0.0 0.0 0.0
04:30 4.6 65.0 1010.1 0.0 W 0.0 0.0 0.0
04:35 4.7 65.0 1010.0 0.0 W 0.0 0.0 0.0
04:40 4.7 65.0 1010.1 0.0 W 0.0 0.0 7.0
04:45 4.8 65.0 1010.1 0.0 W 0.0 0.0 11.0
04:50 4.9 65.0 1010.1 0.0 W 0.0 0.0 23.0
04:55 4.9 65.0 1010.3 1.6 W 4.8 0.0 30.0
05:00 4.9 65.0 1010.3 0.0 W 4.8 0.0 28.0
05:05 4.9 65.0 1010.4 1.6 W 1.6 0.0 33.0
05:10 4.9 65.0 1010.4 0.0 W 1.6 0.0 28.0
05:15 4.9 65.0 1010.5 0.0 W 1.6 0.0 25.0
05:20 4.9 65.0 1010.5 0.0 W 0.0 0.0 25.0
05:25 4.9 65.0 1010.6 0.0 W 0.0 0.0 37.0
05:30 4.9 66.0 1010.6 0.0 W 0.0 0.0 32.0
05:35 4.9 66.0 1010.8 0.0 W 0.0 0.0 23.0
05:40 5.1 66.0 1010.6 0.0 W 0.0 0.0 19.0
05:45 5.3 66.0 1010.7 0.0 W 0.0 0.0 23.0
05:50 5.4 66.0 1010.7 0.0 W 4.8 0.0 67.0
05:55 5.4 66.0 1010.7 1.6 W 4.8 0.0 130.0
06:00 5.8 66.0 1010.7 3.2 W 4.8 0.0 264.0
06:05 6.2 66.0 1010.9 8.0 SSE 9.7 0.0 258.0
06:10 6.4 65.0 1010.8 4.8 ENE 9.7 0.0 192.0
06:15 6.4 64.0 1010.8 1.6 ENE 9.7 0.0 404.0
06:20 6.7 63.0 1010.9 1.6 ENE 8.0 0.0 387.0
06:25 7.1 63.0 1011.0 0.0 ENE 4.8 0.0 411.0
06:30 7.4 62.0 1011.1 1.6 ENE 3.2 0.0 149.0
06:35 7.6 62.0 1011.1 3.2 ENE 3.2 0.0 149.0
06:40 7.7 61.0 1011.1 1.6 ENE 4.8 0.0 141.0
06:45 7.8 61.0 1011.1 3.2 ENE 4.8 0.0 139.0
06:50 7.7 61.0 1011.1 1.6 ENE 6.4 0.0 202.0
06:55 7.9 62.0 1010.9 6.4 SSE 8.0 0.0 526.0
07:00 8.5 61.0 1010.9 3.2 SSE 9.7 0.0 109.0
07:05 8.6 59.0 1010.8 1.6 SSE 9.7 0.0 496.0
07:10 8.8 60.0 1010.9 6.4 SSE 8.0 0.0 492.0
07:15 9.1 60.0 1011.1 3.2 SSE 8.0 0.0 513.0
07:20 9.4 58.0 1011.0 6.4 SSE 8.0 0.0 529.0
07:25 9.5 57.0 1011.1 9.7 SSE 11.3 0.0 536.0
07:30 9.7 54.0 1011.2 1.6 S 11.3 0.0 563.0
07:35 10.1 52.0 1011.1 6.4 SSE 8.0 0.0 584.0
07:40 10.2 50.0 1011.1 3.2 SSE 9.7 0.0 594.0
07:45 10.6 49.0 1011.5 3.2 SSE 9.7 0.0 619.0
07:50 11.0 45.0 1011.6 1.6 SE 11.3 0.0 633.0
07:55 11.3 35.0 1011.5 9.7 NE 25.7 0.0 650.0
08:00 11.3 35.0 1011.6 11.3 NE 27.4 0.0 668.0
08:05 11.4 29.0 1011.7 14.5 E 27.4 0.0 680.0
08:10 11.3 29.0 1011.8 11.3 E 27.4 0.0 691.0
08:15 11.4 27.0 1011.8 8.0 N 25.7 0.0 714.0
08:20 11.6 27.0 1012.0 17.7 ENE 25.7 0.0 722.0
08:25 11.8 26.0 1012.1 9.7 NNE 24.1 0.0 749.0
08:30 11.9 25.0 1012.3 16.1 E 19.3 0.0 763.0
08:35 11.8 24.0 1012.1 4.8 E 17.7 0.0 789.0
08:40 11.8 26.0 1012.3 8.0 NNE 19.3 0.0 828.0
08:45 11.5 25.0 1012.1 11.3 SSW 25.7 0.0 898.0
08:50 11.6 27.0 1012.1 14.5 E 25.7 0.0 861.0
08:55 11.8 29.0 1012.1 8.0 ESE 20.9 0.0 904.0
09:00 12.2 29.0 1012.0 6.4 ESE 17.7 0.0 907.0
09:05 12.7 29.0 1011.9 8.0 SSE 19.3 0.0 930.0
09:10 13.0 28.0 1012.1 8.0 SE 24.1 0.0 981.0
09:15 12.6 27.0 1012.2 14.5 E 25.7 0.0 933.0
09:20 12.4 29.0 1012.3 12.9 E 25.7 0.0 981.0
09:25 12.6 29.0 1012.3 6.4 E 17.7 0.0 1104.0
09:30 12.5 25.0 1012.2 4.8 E 25.7 0.0 1121.0
09:35 11.8 27.0 1012.4 12.9 ENE 25.7 0.0 283.0
09:40 11.4 28.0 1012.4 11.3 NE 22.5 0.0 675.0
09:45 11.3 30.0 1012.5 14.5 NE 20.9 0.0 274.0
09:50 11.5 29.0 1012.7 4.8 ENE 20.9 0.0 1049.0
09:55 12.0 30.0 1012.7 6.4 ENE 19.3 0.0 243.0
10:00 12.1 26.0 1012.7 6.4 ENE 17.7 0.0 1051.0
10:05 12.2 28.0 1012.8 4.8 NE 17.7 0.0 1099.0
10:10 12.5 27.0 1012.7 4.8 ENE 19.3 0.0 1139.0
10:15 12.1 27.0 1012.6 8.0 NNE 24.1 0.0 1148.0
10:20 11.9 27.0 1012.7 6.4 ENE 24.1 0.0 1153.0
10:25 11.9 28.0 1012.8 1.6 ENE 24.1 0.0 1107.0
10:30 12.2 28.0 1012.9 12.9 E 19.3 0.0 1072.0
10:35 12.4 24.0 1013.1 6.4 SSW 20.9 0.0 1034.0
10:40 12.6 28.0 1013.0 4.8 S 20.9 0.0 1041.0
10:45 13.3 25.0 1012.9 19.3 NE 19.3 0.0 1039.0
10:50 13.1 19.0 1013.1 6.4 E 20.9 0.0 125.0
10:55 12.8 21.0 1013.2 4.8 ENE 20.9 0.0 1100.0
11:00 12.7 23.0 1013.0 12.9 NNE 19.3 0.0 1081.0
11:05 12.7 22.0 1012.9 19.3 NNE 19.3 0.0 98.0
11:10 12.8 21.0 1013.0 4.8 NNW 20.9 0.0 1072.0
Màxima 13.3 67.0 1013.2 19.3 NNE 27.4 0.0 1153.0
Mínima 4.0 19.0 1009.7
Total 0.0